Regional Weather Roundup
Issued by NWS Bismarck, ND

Home | Current Version | Previous Version | Text Only | Print | Product List | Glossary On
Versions: 1 2 3 4 5 6 7 8 9 10 11 12 13 14 15 16 17 18 19 20 21 22 23 24 25 26 27 28 29 30 31 32 33 34 35 36 37 38 39 40 41 42 43 44 45 46 47 48 49 50
000
ASUS43 KBIS 260710
RWRBIS

NWR BROADCAST TEXT
NATIONAL WEATHER SERVICE BISMARCK ND
200 AM CDT MON SEP 26 2016

NOTE: "FAIR" INDICATES FEW OR NO CLOUDS BELOW 12,000 FEET WITH NO
SIGNIFICANT WEATHER AND/OR OBSTRUCTIONS TO VISIBILITY.


CITY           SKY/WX    TMP DP  RH WIND       PRES   REMARKS
WILLISTON      CLEAR     42  33  70 CALM      30.20S
MINOT          CLEAR     49  34  56 W14       30.12S
MINOT AFB      CLEAR     46  35  66 W13       30.11S
BISMARCK       CLEAR     45  35  68 W9        30.17S
DICKINSON      CLEAR     39  34  82 W8        30.20S
GARRISON         N/A     45  35  68 W12       30.15S
HETTINGER ARPT CLEAR     39  36  89 NW7       30.25S
JAMESTOWN      CLEAR     46  38  73 W12       30.06S
CARRINGTON     FAIR      48  36  61 W15       30.08F
HAZEN          FAIR      39  34  81 SW9       30.19S
LINTON         FAIR      36  34  93 W3        30.19F
MANDAN         FAIR      41  34  75 W13       30.17S
RUGBY          FAIR      41  37  87 W12       30.06S
STANLEY        FAIR      45  34  65 NW10      30.18S
WATFORD CITY   FAIR      39  36  87 SW9       30.20S
$$

CITY           SKY/WX    TMP DP  RH WIND       PRES   REMARKS
GRAND FORKS    PTCLDY    52  38  58 NW13G23   29.93S
GRAND FORKS AF PTCLDY    52  37  57 NW15G22   29.95R
DEVILS LAKE    CLEAR     49  37  63 W17G26    30.02F
FARGO          CLEAR     52  37  56 W17       29.97S
CANDO          FAIR      45  36  70 W13       30.04S
CAVALIER       PTSUNNY   50  39  66 W10       29.92S
GRAFTON        FAIR      52  41  66 NW18      29.94S
GWINNER        FAIR      48  39  71 W13       30.06S
LANGDON        FAIR      46  37  71 W17G23    29.97S
ROLLA          FAIR      50  32  50 NW14G25   30.03R
WALHALLA       FAIR      50  46  87 NW12G18   29.93S
$$

CITY           SKY/WX    TMP DP  RH WIND       PRES   REMARKS
ABERDEEN       CLEAR     44  35  70 W9        30.14S
MOBRIDGE       CLEAR     48  36  63 NW7       30.17S
BUFFALO          N/A     45  37  73 W9        30.20F
RAPID CITY     CLEAR     42  34  73 NW9       30.32S
GLASGOW        PTCLDY    48  37  65 W7        30.23R
SIDNEY         CLEAR     41  38  89 SW3       30.22S
WOLF POINT     CLEAR     42  38  85 W3        30.23R
GLENDIVE       CLEAR     45  39  79 CALM      30.24S
MILES CITY     CLEAR     47  41  80 S5        30.27S
BAKER          CLEAR     45  37  73 CALM      30.27S
$$

CITY           SKY/WX    TMP DP  RH WIND       PRES   REMARKS
BILLINGS       PTCLDY    56  42  59 SW12      30.33S
GREAT FALLS    CLEAR     46  40  79 SW9       30.34S
REGINA         CLEAR     36  32  87 W8        30.16S
$$




USA.gov is the U.S. government's official web portal to all federal, state and local government web resources and services.